Current Weather Conditions: station 63115

sailwx.info

Last reported at 2016-Oct-18 10:09 UTC.
Time now 2017-Mar-28 23:35 UTC

Location: N 61°36' E 001°18'.
View on Google Maps.

See reports from other nearby stations

  
Tides and Currents Weather Stations Pressure Air Temp Water Temp Dewpoint Dewpoint Depression Visibility Wind Speed Wind Dir Waves Ship Positions
date/time (UTC)wind fromknots sea level pressurealtimeterstation pressurevisibilityair tempwater tempwave heightnotes
2017-Mar-28 22:00 020 20 10.8 4.0 2.8
2017-Mar-28 21:00 020 20 10.8 5.1 2.7
2017-Mar-28 20:00 020 20 10.8 5.1 2.5
2017-Mar-28 19:00 030 17 10.8 5.3 2.7
2017-Mar-28 18:00 030 17 10.8 6.0 2.6
2017-Mar-28 17:00 030 17 10.8 5.8 2.5
2017-Mar-28 16:00 020 17 10.8 5.2 2.5
2017-Mar-28 15:00 020 14 10.8 5.6 2.4
2017-Mar-28 14:00 030 13 10.8 8.2 2.6
2017-Mar-28 13:00 030 14 10.8 7.6 2.4
2017-Mar-28 12:00 030 13 10.8 5.4 2.6
2017-Mar-28 11:00 020 14 10.8 4.2 2.6
2017-Mar-28 10:00 020 13 10.8 4.6 2.6
2017-Mar-28 09:00 020 13 10.8 4.4 2.8
2017-Mar-28 08:00 020 12 10.8 5.0 2.6
2017-Mar-28 07:00 020 13 10.8 4.7 2.3
2017-Mar-28 06:00 010 13 10.8 4.6 2.1
2017-Mar-28 05:00 010 13 10.8 4.9 2.4
2017-Mar-28 04:00 020 11 10.8 5.3 2.2
2017-Mar-28 03:00 010 13 10.8 5.2 2.4
2017-Mar-28 02:00 010 13 27.0 5.2 2.3
2017-Mar-28 01:00 010 12 10.8 5.5 2.2
2017-Mar-28 00:00 010 13 10.8 5.7 2.5
2017-Mar-27 23:00 010 11 10.8 6.0 2.5
2017-Mar-27 22:00 010 13 10.8 6.3 2.3
2017-Mar-27 21:00 010 13 10.8 6.5 2.4
2017-Mar-27 20:00 020 6 10.8 7.2 2.2
2017-Mar-27 19:00 010 9 10.8 6.4 2.2
2017-Mar-27 18:00 010 11 10.8 6.0 2.2
2017-Mar-27 17:00 010 9 10.8 6.0 2.3
2017-Mar-27 16:00 350 12 10.8 6.1 2.3
2017-Mar-27 15:00 350 6 10.8 5.8 2.4
2017-Mar-27 14:00 340 12 5.4 6.2 2.5
2017-Mar-27 13:00 340 11 5.4 6.8 2.3
2017-Mar-27 12:00 310 13 10.8 7.8 2.4
2017-Mar-27 11:00 310 13 10.8 8.0 2.6
2017-Mar-27 10:00 300 13 10.8 7.8 2.7
2017-Mar-27 09:00 280 13 10.8 7.4 2.6
2017-Mar-27 08:00 260 11 2.2 7.1 2.6
2017-Mar-27 07:00 270 9 10.8 7.3 2.5
2017-Mar-27 06:00 290 15 10.8 7.1 2.6
2017-Mar-27 05:00 270 17 5.4 7.0 2.4
2017-Mar-27 04:00 270 18 5.4 6.7 2.5
2017-Mar-27 03:00 260 15 10.8 6.5 2.5
2017-Mar-27 02:00 250 17 2.2 6.8 2.6
2017-Mar-27 01:00 240 15 2.2 6.8 2.6
2017-Mar-27 00:00 230 14 5.4 7.3 2.7
2017-Mar-26 23:00 230 17 5.4 7.4 2.6